TimeMST,TemperatureF,Dew PointF,Humidity,Sea Level PressureIn,VisibilityMPH,Wind Direction,Wind SpeedMPH,Gust SpeedMPH,PrecipitationIn,Events,Conditions,WindDirDegrees,DateUTC
12:53 AM,19.0,12.0,74,29.88,10.0,Variable,3.5,-,N/A,,Clear,0,2014-01-04 07:53:00
1:53 AM,19.9,12.0,71,29.87,10.0,East,5.8,-,N/A,,Clear,100,2014-01-04 08:53:00
2:53 AM,16.0,10.9,81,29.88,10.0,East,5.8,-,N/A,,Clear,100,2014-01-04 09:53:00
3:53 AM,16.0,10.9,81,29.88,10.0,Variable,6.9,-,N/A,,Clear,0,2014-01-04 10:53:00
4:53 AM,15.1,10.9,84,29.87,10.0,ESE,4.6,-,N/A,,Clear,110,2014-01-04 11:53:00
5:53 AM,16.0,10.9,81,29.92,10.0,East,5.8,-,N/A,,Clear,100,2014-01-04 12:53:00
6:53 AM,16.0,12.0,84,29.94,10.0,NE,6.9,-,N/A,,Clear,40,2014-01-04 13:53:00
7:53 AM,15.1,10.9,84,29.94,10.0,Calm,Calm,-,N/A,,Clear,0,2014-01-04 14:53:00
8:53 AM,28.9,17.1,61,29.90,10.0,NNE,5.8,-,N/A,,Clear,20,2014-01-04 15:53:00
9:53 AM,39.0,19.0,45,29.86,10.0,Calm,Calm,-,N/A,,Scattered Clouds,0,2014-01-04 16:53:00
10:53 AM,41.0,18.0,40,29.85,10.0,West,12.7,20.7,N/A,,Overcast,270,2014-01-04 17:53:00
11:53 AM,39.0,19.9,46,29.86,10.0,NNW,26.5,33.4,N/A,,Overcast,330,2014-01-04 18:53:00
12:53 PM,36.0,18.0,48,29.89,10.0,NNW,25.3,33.4,N/A,,Overcast,330,2014-01-04 19:53:00
1:53 PM,36.0,10.9,36,29.91,10.0,NNW,15.0,31.1,N/A,,Overcast,330,2014-01-04 20:53:00
2:53 PM,35.1,5.0,28,29.97,10.0,NNW,17.3,33.4,N/A,,Overcast,330,2014-01-04 21:53:00
3:53 PM,34.0,8.1,34,30.00,10.0,NNW,18.4,28.8,N/A,,Clear,330,2014-01-04 22:53:00
4:53 PM,30.0,3.0,32,30.05,10.0,NNW,15.0,26.5,N/A,,Clear,330,2014-01-04 23:53:00
5:53 PM,27.0,9.0,47,30.10,10.0,NNW,11.5,-,N/A,,Clear,340,2014-01-05 00:53:00
6:53 PM,24.1,9.0,53,30.14,10.0,NW,6.9,-,N/A,,Partly Cloudy,320,2014-01-05 01:53:00
7:53 PM,24.1,7.0,48,30.15,10.0,NW,9.2,-,N/A,,Clear,320,2014-01-05 02:53:00
8:53 PM,18.0,7.0,62,30.14,10.0,North,4.6,-,N/A,,Clear,360,2014-01-05 03:53:00
9:53 PM,18.0,6.1,60,30.11,10.0,East,5.8,-,N/A,,Clear,90,2014-01-05 04:53:00
10:53 PM,12.0,5.0,73,30.13,10.0,ENE,4.6,-,N/A,,Clear,70,2014-01-05 05:53:00
11:53 PM,10.0,3.9,76,30.15,10.0,East,8.1,-,N/A,,Clear,90,2014-01-05 06:53:00